Regional Weather Roundup
Issued by NWS

Home | Current Version | Previous Version | Graphics & Text | Print | Product List | Glossary On
Versions: 1 2 3 4 5 6 7 8 9 10 11 12 13 14 15 16 17 18 19 20 21 22 23 24 25 26 27 28 29 30 31 32 33 34 35 36 37 38 39 40 41 42 43 44 45 46 47 48 49 50
000
ASUS45 KSLC 010210
RWRUT

UTAH REGIONAL WEATHER ROUNDUP
NATIONAL WEATHER SERVICE SALT LAKE CITY UT
800 PM MDT THU JUL 31 2014

UTZ001>011-023>025-010300-

NORTHERN UTAH

CITY           SKY/WX    TMP DP  RH WIND       PRES   REMARKS
HILL AFB       PTCLDY    78  53  41 W9        30.15R
LOGAN          CLEAR     79  55  43 CALM      30.12R
OGDEN          MOCLDY    79  52  38 W8        30.12R
PROVO AIRPORT  MOCLDY    79  57  47 NW9       30.13F
SALT LAKE CITY MOCLDY    82  42  24 W9        30.10S
VERNAL         PTCLDY    80  43  26 N7        30.13S
WENDOVER       CLOUDY    75  45  33 NW13      30.13F
HEBER CITY     MOCLDY    72  55  56 E3        30.19S
WEST JORDAN    CLEAR     82  54  36 W9        30.13F

$$

UTZ012>022-026-027-010300-

SOUTHERN UTAH

CITY           SKY/WX    TMP DP  RH WIND       PRES   REMARKS
BRYCE CANYON   PTCLDY    66  51  58 W8        30.32R
CEDAR CITY     CLOUDY    77  44  30 NE9G20    30.16S
MILFORD        CLOUDY    72  58  61 NE6       30.15R
MOAB/CYNLANDS  CLEAR     86  46  24 SE5       30.02S
PRICE          CLOUDY    70  56  61 SE3       30.20S
ST GEORGE      MOCLDY    93  50  22 NE12G23   29.91R HX  90
KANAB          MOCLDY    81  48  32 E10       30.11R

$$

REGIONAL REPORTS     COLORADO/ARIZONA

CITY           SKY/WX    TMP DP  RH WIND       PRES   REMARKS
CRAIG, CO      CLOUDY    63  53  70 E6        30.20R
GRAND JUNCTION MOCLDY    80  50  34 W5        30.05F
RIFLE          MOCLDY    81  47  30 NE7       30.12R
MONTROSE       MOCLDY    79  54  41 S10       30.16S
CORTEZ         CLEAR     74  51  44 S5        30.14S
PAGE, AZ       LGT RAIN  76  57  51 S18G29    30.08R
GRAND CANYON   CLOUDY    67  52  58 CALM      30.27F
KINGMAN        CLOUDY    89  49  25 SE24      29.99R
FLAGSTAFF      LGT RAIN  57  53  86 W7        30.38R

$$

REGIONAL REPORTS    NEVADA/IDAHO/WYOMING

CITY           SKY/WX    TMP DP  RH WIND       PRES   REMARKS
LAS VEGAS, NV  MOCLDY   105  37   9 SW16G26   29.79S HX  99
ELY            MOCLDY    72  44  36 N14       30.26F
ELKO           CLOUDY    69  50  50 CALM      30.21F
POCATELLO, ID  PTCLDY    84  44  24 NW3       30.11S
BURLEY         CLOUDY    79  51  37 CALM      30.07S
EVANSTON, WY   PTCLDY    71  39  31 NE6       30.30F
ROCK SPRINGS   CLEAR     74  23  15 E9        30.27S

$$



USA.gov is the U.S. government's official web portal to all federal, state and local government web resources and services.